Time,TemperatureF,DewpointF,PressureIn,WindDirection,WindDirectionDegrees,WindSpeedMPH,WindSpeedGustMPH,Humidity,HourlyPrecipIn,Conditions,Clouds,dailyrainin,SolarRadiationWatts/m^2,SoftwareType,DateUTC
2013-03-14 00:02:00,40.0,29.0,-100.00,SE,135,2.0,7.0,65,0.00,,,0.00,0.000000,,2013-03-14 06:02:00,
2013-03-14 00:12:00,40.0,29.0,-100.00,SE,135,2.0,7.0,65,0.00,,,0.00,0.000000,,2013-03-14 06:12:00,
2013-03-14 00:33:00,36.0,29.0,-100.00,ENE,68,2.0,5.0,74,0.00,,,0.00,0.000000,,2013-03-14 06:33:00,
2013-03-14 00:42:00,36.0,29.0,-100.00,ENE,68,2.0,5.0,74,0.00,,,0.00,0.000000,,2013-03-14 06:42:00,
2013-03-14 00:52:00,36.0,29.0,-100.00,ENE,68,2.0,5.0,74,0.00,,,0.00,0.000000,,2013-03-14 06:52:00,
2013-03-14 01:02:00,36.0,29.0,-100.00,ENE,68,2.0,5.0,74,0.00,,,0.00,0.000000,,2013-03-14 07:02:00,
2013-03-14 01:11:00,36.0,29.0,-100.00,ENE,68,2.0,5.0,74,0.00,,,0.00,0.000000,,2013-03-14 07:11:00,
2013-03-14 01:32:00,35.0,29.0,-100.00,West,265,2.0,7.0,78,0.00,,,0.00,0.000000,,2013-03-14 07:32:00,
2013-03-14 01:43:00,35.0,29.0,-100.00,West,265,2.0,7.0,78,0.00,,,0.00,0.000000,,2013-03-14 07:43:00,
2013-03-14 01:52:00,35.0,29.0,-100.00,West,265,2.0,7.0,78,0.00,,,0.00,0.000000,,2013-03-14 07:52:00,
2013-03-14 02:02:00,35.0,29.0,-100.00,West,265,2.0,7.0,78,0.00,,,0.00,0.000000,,2013-03-14 08:02:00,
2013-03-14 02:11:00,35.0,29.0,-100.00,West,265,2.0,7.0,78,0.00,,,0.00,0.000000,,2013-03-14 08:11:00,
2013-03-14 02:42:00,33.0,29.0,-100.00,SE,130,2.0,6.0,85,0.00,,,-99.99,0.000000,,2013-03-14 08:42:00,
2013-03-14 02:52:00,33.0,29.0,-100.00,SE,130,2.0,6.0,85,0.00,,,-99.99,0.000000,,2013-03-14 08:52:00,
2013-03-14 03:01:00,33.0,29.0,-100.00,SE,130,2.0,6.0,85,0.00,,,-99.99,0.000000,,2013-03-14 09:01:00,
2013-03-14 03:12:00,33.0,29.0,-100.00,SE,130,2.0,6.0,85,0.00,,,-99.99,0.000000,,2013-03-14 09:12:00,
2013-03-14 03:32:00,31.0,28.0,-100.00,SSE,161,2.0,6.0,89,0.00,,,-99.99,0.000000,,2013-03-14 09:32:00,
2013-03-14 03:42:00,31.0,28.0,-100.00,SSE,161,2.0,6.0,89,0.00,,,-99.99,0.000000,,2013-03-14 09:42:00,
2013-03-14 03:52:00,31.0,28.0,-100.00,SSE,161,2.0,6.0,89,0.00,,,-99.99,0.000000,,2013-03-14 09:52:00,
2013-03-14 04:02:00,31.0,28.0,-100.00,SSE,161,2.0,6.0,89,0.00,,,-99.99,0.000000,,2013-03-14 10:02:00,
2013-03-14 04:12:00,31.0,28.0,-100.00,SSE,161,2.0,6.0,89,0.00,,,-99.99,0.000000,,2013-03-14 10:12:00,
2013-03-14 04:32:00,30.0,27.0,-100.00,SSE,152,3.0,6.0,88,0.00,,,0.00,0.000000,,2013-03-14 10:32:00,
2013-03-14 04:42:00,30.0,27.0,-100.00,SSE,152,3.0,6.0,88,0.00,,,0.00,0.000000,,2013-03-14 10:42:00,
2013-03-14 04:52:00,30.0,27.0,-100.00,SSE,152,3.0,6.0,88,0.00,,,0.00,0.000000,,2013-03-14 10:52:00,
2013-03-14 05:02:00,30.0,27.0,-100.00,SSE,152,3.0,6.0,88,0.00,,,0.00,0.000000,,2013-03-14 11:02:00,
2013-03-14 05:12:00,30.0,27.0,-100.00,SSE,152,3.0,6.0,88,0.00,,,0.00,0.000000,,2013-03-14 11:12:00,
2013-03-14 05:33:00,30.0,28.0,-100.00,WSW,252,2.0,9.0,91,0.00,,,0.00,0.000000,,2013-03-14 11:33:00,
2013-03-14 05:42:00,30.0,28.0,-100.00,WSW,252,2.0,9.0,91,0.00,,,0.00,0.000000,,2013-03-14 11:42:00,
2013-03-14 05:52:00,30.0,28.0,-100.00,WSW,252,2.0,9.0,91,0.00,,,0.00,0.000000,,2013-03-14 11:52:00,
2013-03-14 06:01:00,30.0,28.0,-100.00,WSW,252,2.0,9.0,91,0.00,,,0.00,0.000000,,2013-03-14 12:01:00,
2013-03-14 06:11:00,30.0,28.0,-100.00,WSW,252,2.0,9.0,91,0.00,,,0.00,0.000000,,2013-03-14 12:11:00,
2013-03-14 06:33:00,30.0,28.0,-100.00,SSE,149,3.0,5.0,91,0.00,,,0.00,0.000000,,2013-03-14 12:33:00,
2013-03-14 06:42:00,30.0,28.0,-100.00,SSE,149,3.0,5.0,91,0.00,,,0.00,0.000000,,2013-03-14 12:42:00,
2013-03-14 06:52:00,30.0,28.0,-100.00,SSE,149,3.0,5.0,91,0.00,,,0.00,0.000000,,2013-03-14 12:52:00,
2013-03-14 07:02:00,30.0,28.0,-100.00,SSE,149,3.0,5.0,91,0.00,,,0.00,0.000000,,2013-03-14 13:02:00,
2013-03-14 07:12:00,30.0,28.0,-100.00,SSE,149,3.0,5.0,91,0.00,,,0.00,0.000000,,2013-03-14 13:12:00,
2013-03-14 07:32:00,28.0,26.0,-100.00,WSW,242,1.0,5.0,91,0.00,,,0.00,0.000000,,2013-03-14 13:32:00,
2013-03-14 07:43:00,28.0,26.0,-100.00,WSW,242,1.0,5.0,91,0.00,,,0.00,0.000000,,2013-03-14 13:43:00,
2013-03-14 07:52:00,28.0,26.0,-100.00,WSW,242,1.0,5.0,91,0.00,,,0.00,0.000000,,2013-03-14 13:52:00,
2013-03-14 08:02:00,28.0,26.0,-100.00,WSW,242,1.0,5.0,91,0.00,,,0.00,0.000000,,2013-03-14 14:02:00,
2013-03-14 08:12:00,28.0,26.0,-100.00,WSW,242,1.0,5.0,91,0.00,,,0.00,0.000000,,2013-03-14 14:12:00,
2013-03-14 08:42:00,27.0,25.0,-100.00,South,169,1.0,6.0,93,0.00,,,0.00,5.000000,,2013-03-14 14:42:00,
2013-03-14 08:53:00,27.0,25.0,-100.00,South,169,1.0,6.0,93,0.00,,,0.00,5.000000,,2013-03-14 14:53:00,
2013-03-14 09:02:00,27.0,25.0,-100.00,South,169,1.0,6.0,93,0.00,,,0.00,5.000000,,2013-03-14 15:02:00,
2013-03-14 09:12:00,27.0,25.0,-100.00,South,169,1.0,6.0,93,0.00,,,0.00,5.000000,,2013-03-14 15:12:00,
2013-03-14 09:33:00,33.0,31.0,-100.00,East,90,3.0,5.0,92,0.00,,,0.00,89.000000,,2013-03-14 15:33:00,
2013-03-14 09:43:00,33.0,31.0,-100.00,East,90,3.0,5.0,92,0.00,,,0.00,89.000000,,2013-03-14 15:43:00,
2013-03-14 09:52:00,33.0,31.0,-100.00,East,90,3.0,5.0,92,0.00,,,0.00,89.000000,,2013-03-14 15:52:00,
2013-03-14 10:02:00,33.0,31.0,-100.00,East,90,3.0,5.0,92,0.00,,,0.00,89.000000,,2013-03-14 16:02:00,
2013-03-14 10:12:00,33.0,31.0,-100.00,East,90,3.0,5.0,92,0.00,,,0.00,89.000000,,2013-03-14 16:12:00,
2013-03-14 10:33:00,42.0,35.0,-100.00,West,276,2.0,6.0,76,0.00,,,0.00,221.000000,,2013-03-14 16:33:00,
2013-03-14 10:52:00,42.0,35.0,-100.00,West,276,2.0,6.0,76,0.00,,,0.00,221.000000,,2013-03-14 16:52:00,
2013-03-14 11:02:00,42.0,35.0,-100.00,West,276,2.0,6.0,76,0.00,,,0.00,221.000000,,2013-03-14 17:02:00,
2013-03-14 11:12:00,42.0,35.0,-100.00,West,276,2.0,6.0,76,0.00,,,0.00,221.000000,,2013-03-14 17:12:00,
2013-03-14 11:33:00,49.0,35.0,-100.00,NNW,334,2.0,4.0,59,0.00,,,0.00,362.000000,,2013-03-14 17:33:00,
2013-03-14 12:02:00,49.0,35.0,-100.00,NNW,334,2.0,4.0,59,0.00,,,0.00,362.000000,,2013-03-14 18:02:00,
2013-03-14 12:12:00,49.0,35.0,-100.00,NNW,334,2.0,4.0,59,0.00,,,0.00,362.000000,,2013-03-14 18:12:00,
2013-03-14 13:02:00,56.0,33.0,-100.00,NNE,29,2.0,6.0,42,0.00,,,0.00,508.000000,,2013-03-14 19:02:00,
2013-03-14 13:12:00,56.0,33.0,-100.00,NNE,29,2.0,6.0,42,0.00,,,0.00,508.000000,,2013-03-14 19:12:00,
2013-03-14 14:42:00,63.0,33.0,-100.00,NNW,348,2.0,6.0,32,-99.99,,,0.00,424.000000,,2013-03-14 20:42:00,
2013-03-14 14:52:00,63.0,33.0,-100.00,NNW,348,2.0,6.0,32,-99.99,,,0.00,424.000000,,2013-03-14 20:52:00,
2013-03-14 15:02:00,63.0,33.0,-100.00,NNW,348,2.0,6.0,32,-99.99,,,0.00,424.000000,,2013-03-14 21:02:00,
2013-03-14 15:12:00,63.0,33.0,-100.00,NNW,348,2.0,6.0,32,-99.99,,,0.00,424.000000,,2013-03-14 21:12:00,
2013-03-14 15:43:00,68.0,35.0,-100.00,North,357,4.0,7.0,30,0.00,,,0.00,465.000000,,2013-03-14 21:43:00,
2013-03-14 15:53:00,68.0,35.0,-100.00,North,357,4.0,7.0,30,0.00,,,0.00,465.000000,,2013-03-14 21:53:00,
2013-03-14 16:12:00,68.0,35.0,-100.00,North,357,4.0,7.0,30,0.00,,,0.00,465.000000,,2013-03-14 22:12:00,
2013-03-14 16:42:00,65.0,34.0,-100.00,North,10,6.0,9.0,31,0.00,,,0.00,398.000000,,2013-03-14 22:42:00,
2013-03-14 16:52:00,65.0,34.0,-100.00,North,10,6.0,9.0,31,0.00,,,0.00,398.000000,,2013-03-14 22:52:00,
2013-03-14 17:02:00,65.0,34.0,-100.00,North,10,6.0,9.0,31,0.00,,,0.00,398.000000,,2013-03-14 23:02:00,
2013-03-14 17:11:00,65.0,34.0,-100.00,North,10,6.0,9.0,31,0.00,,,0.00,398.000000,,2013-03-14 23:11:00,
2013-03-14 17:33:00,66.0,33.0,-100.00,NNE,12,5.0,12.0,29,0.00,,,0.00,445.000000,,2013-03-14 23:33:00,
2013-03-14 17:43:00,66.0,33.0,-100.00,NNE,12,5.0,12.0,29,0.00,,,0.00,445.000000,,2013-03-14 23:43:00,
2013-03-14 17:53:00,66.0,33.0,-100.00,NNE,12,5.0,12.0,29,0.00,,,0.00,445.000000,,2013-03-14 23:53:00,
2013-03-14 18:02:00,66.0,33.0,-100.00,NNE,12,5.0,12.0,29,0.00,,,0.00,445.000000,,2013-03-15 00:02:00,
2013-03-14 18:12:00,66.0,33.0,-100.00,NNE,12,5.0,12.0,29,0.00,,,0.00,445.000000,,2013-03-15 00:12:00,
2013-03-14 18:32:00,68.0,23.0,-100.00,SW,225,6.0,11.0,18,0.00,,,0.00,282.000000,,2013-03-15 00:32:00,
2013-03-14 19:11:00,68.0,23.0,-100.00,SW,225,6.0,11.0,18,0.00,,,0.00,282.000000,,2013-03-15 01:11:00,
2013-03-14 19:32:00,63.0,22.0,-100.00,SW,220,3.0,11.0,21,0.00,,,0.00,67.000000,,2013-03-15 01:32:00,
2013-03-14 19:42:00,63.0,22.0,-100.00,SW,220,3.0,11.0,21,0.00,,,0.00,67.000000,,2013-03-15 01:42:00,
2013-03-14 19:52:00,63.0,22.0,-100.00,SW,220,3.0,11.0,21,0.00,,,0.00,67.000000,,2013-03-15 01:52:00,
2013-03-14 20:02:00,63.0,22.0,-100.00,SW,220,3.0,11.0,21,0.00,,,0.00,67.000000,,2013-03-15 02:02:00,
2013-03-14 20:11:00,63.0,22.0,-100.00,SW,220,3.0,11.0,21,0.00,,,0.00,67.000000,,2013-03-15 02:11:00,
2013-03-14 20:32:00,52.0,23.0,-100.00,East,98,4.0,7.0,32,0.00,,,0.00,8.000000,,2013-03-15 02:32:00,
2013-03-14 20:42:00,52.0,23.0,-100.00,East,98,4.0,7.0,32,0.00,,,0.00,8.000000,,2013-03-15 02:42:00,
2013-03-14 20:52:00,52.0,23.0,-100.00,East,98,4.0,7.0,32,0.00,,,0.00,8.000000,,2013-03-15 02:52:00,
2013-03-14 21:02:00,52.0,23.0,-100.00,East,98,4.0,7.0,32,0.00,,,0.00,8.000000,,2013-03-15 03:02:00,
2013-03-14 21:11:00,52.0,23.0,-100.00,East,98,4.0,7.0,32,0.00,,,0.00,8.000000,,2013-03-15 03:11:00,
2013-03-14 21:33:00,47.0,29.0,-100.00,South,178,3.0,7.0,49,0.00,,,0.00,0.000000,,2013-03-15 03:33:00,
2013-03-14 21:43:00,47.0,29.0,-100.00,South,178,3.0,7.0,49,0.00,,,0.00,0.000000,,2013-03-15 03:43:00,
2013-03-14 21:53:00,47.0,29.0,-100.00,South,178,3.0,7.0,49,0.00,,,0.00,0.000000,,2013-03-15 03:53:00,
2013-03-14 22:03:00,47.0,29.0,-100.00,South,178,3.0,7.0,49,0.00,,,0.00,0.000000,,2013-03-15 04:03:00,
2013-03-14 22:12:00,47.0,29.0,-100.00,South,178,3.0,7.0,49,0.00,,,0.00,0.000000,,2013-03-15 04:12:00,
2013-03-14 22:33:00,44.0,31.0,-100.00,ESE,120,4.0,7.0,61,0.00,,,-99.99,0.000000,,2013-03-15 04:33:00,
2013-03-14 22:43:00,44.0,31.0,-100.00,ESE,120,4.0,7.0,61,0.00,,,-99.99,0.000000,,2013-03-15 04:43:00,
2013-03-14 22:53:00,44.0,31.0,-100.00,ESE,120,4.0,7.0,61,0.00,,,-99.99,0.000000,,2013-03-15 04:53:00,
2013-03-14 23:02:00,44.0,31.0,-100.00,ESE,120,4.0,7.0,61,0.00,,,-99.99,0.000000,,2013-03-15 05:02:00,
2013-03-14 23:12:00,44.0,31.0,-100.00,ESE,120,4.0,7.0,61,0.00,,,-99.99,0.000000,,2013-03-15 05:12:00,
2013-03-14 23:32:00,45.0,31.0,-100.00,South,172,4.0,9.0,57,0.00,,,-99.99,0.000000,,2013-03-15 05:32:00,
2013-03-14 23:42:00,45.0,31.0,-100.00,South,172,4.0,9.0,57,0.00,,,-99.99,0.000000,,2013-03-15 05:42:00,
2013-03-14 23:52:00,45.0,31.0,-100.00,South,172,4.0,9.0,57,0.00,,,-99.99,0.000000,,2013-03-15 05:52:00,